Temp
61 62 61 60 60 59 58 56 56 56 55 54 54 54 54 54 53 53 52 52 52 51 51 50 50 50 50 50 50 50 50 50 50 50 50 50 50 51 51 51 52 52 52 52 52 53 54 54 55 56 57 56 56 56 55 55 55 55 55 55 55 55 55 55 55 55 55 55 55
60 60 60 59 59 58 56 55 54 54 54 53 53 53 53 52 52 51 51 51 51 50 50 50 49 49 49 49 49 49 49 49 49 49 49 49 49 49 50 50 50 51 51 51 51 52 52 53 53 54 54 54 54 54 53 53 54 54 53 53 54 54 54 54 54 55 55 55 55
59 59 60 59 58 56 54 53 53 52 52 52 52 52 51 51 51 50 50 49 50 50 49 49 49 48 48 48 49 49 49 48 48 48 48 48 48 49 49 49 50 50 50 50 50 51 51 51 51 51 51 51 51 51 51 51 52 52 51 51 52 52 53 53 53 53 53 54 54
57 58 58 56 54 53 53 52 52 51 51 51 51 50 50 50 50 49 49 49 49 48 48 48 48 48 48 48 48 48 48 48 48 47 47 47 48 48 48 48 48 49 49 49 50 50 50 50 50 50 50 49 49 50 50 50 50 50 50 49 50 50 50 50 50 51 51 51 52
54 55 54 53 53 52 52 52 51 51 50 50 50 49 49 49 49 49 48 48 47 47 48 48 47 47 47 47 47 47 47 48 48 47 47 47 47 47 47 47 47 48 49 49 49 49 49 49 49 49 49 49 49 49 49 49 49 49 49 49 49 49 49 49 49 49 49 49 49
52 52 52 52 51 51 51 50 50 50 49 49 49 48 48 48 48 47 47 47 47 47 47 48 47 47 47 47 46 46 46 46 46 46 46 46 46 46 47 47 47 47 48 48 48 48 49 49 49 49 48 48 48 48 49 49 49 48 48 48 48 48 48 48 48 48 48 48 48
50 50 50 50 50 49 49 49 49 48 48 48 47 47 47 47 46 46 46 46 46 46 47 47 46 46 46 46 46 45 45 45 45 45 45 45 46 46 46 46 47 47 47 47 47 48 48 48 48 48 48 48 48 48 48 48 48 48 47 47 48 48 48 48 48 48 48 48 47
48 48 48 48 48 48 48 48 47 47 47 46 46 46 46 46 45 45 45 45 45 45 45 45 45 45 45 45 44 44 44 44 44 44 45 45 45 46 46 46 46 46 46 47 47 47 47 47 47 47 47 47 47 47 47 48 47 47 47 47 47 47 48 47 48 48 48 47 47
47 46 46 46 46 46 46 46 46 46 45 45 45 45 45 45 45 45 44 44 44 45 45 44 44 44 44 43 43 43 43 44 44 44 44 45 45 45 45 45 45 46 46 46 46 46 46 46 46 46 46 46 46 46 46 47 47 46 46 46 47 47 47 47 48 48 48 47 47
45 45 45 45 45 45 45 45 44 44 44 43 43 44 44 44 44 44 44 44 45 44 44 44 44 44 44 43 43 43 43 44 44 44 44 44 44 44 44 44 45 45 45 45 46 46 46 46 45 45 45 45 45 45 46 46 46 46 46 46 46 46 46 47 47 47 47 47 47
45 45 45 44 44 44 44 43 43 43 43 42 43 43 43 44 44 44 44 45 44 44 44 45 44 44 44 44 44 44 44 44 44 43 43 43 44 44 44 44 44 44 45 45 45 45 45 45 45 45 45 45 45 45 45 45 45 45 45 46 46 46 46 46 46 46 46 46 46
44 44 44 44 44 44 43 43 42 42 42 42 42 43 43 44 44 45 45 45 44 44 44 44 44 44 44 45 45 45 44 44 44 44 44 44 44 44 45 44 44 44 44 45 45 45 45 45 45 45 45 45 45 45 45 45 45 45 45 46 46 46 46 46 46 46 46 46 46
43 43 43 43 43 43 42 42 41 41 41 42 43 43 44 44 45 45 45 44 44 44 44 44 45 45 45 45 44 44 44 45 45 45 45 45 45 45 45 45 45 45 45 45 46 45 45 45 45 45 45 45 45 45 45 45 45 45 45 45 45 45 45 45 46 46 46 45 45
43 43 43 43 43 42 42 41 41 41 42 42 43 44 44 45 45 45 45 44 44 44 44 44 45 45 45 44 44 44 44 45 45 45 45 44 45 45 45 45 45 45 46 46 46 45 45 45 45 45 45 45 45 45 45 45 45 45 45 45 45 45 45 45 45 45 45 45 44
41 41 42 42 42 42 42 41 41 42 42 43 43 44 45 45 45 45 45 44 44 44 44 44 44 44 44 44 44 44 44 44 44 44 43 43 44 44 44 44 45 45 45 45 45 45 45 45 45 45 44 44 44 45 45 44 44 44 44 44 44 44 44 44 44 44 44 44 44
40 40 41 41 41 41 41 42 42 43 43 43 44 44 44 44 45 45 44 44 44 44 44 43 43 43 43 44 44 44 43 43 43 43 43 43 43 43 44 44 44 44 44 44 44 44 44 44 44 44 44 43 44 44 44 44 44 44 44 44 44 44 44 44 44 43 43 43 43
40 40 40 40 40 40 41 41 42 42 43 43 43 43 43 43 44 44 44 43 43 43 42 42 42 42 43 43 43 43 42 42 42 42 42 42 42 43 43 43 43 43 43 43 43 43 43 43 43 43 42 42 43 43 43 43 43 43 43 43 43 43 43 43 43 43 43 43 42
39 39 39 39 39 39 40 40 41 42 42 42 42 42 43 43 43 43 42 42 42 41 41 41 42 42 41 41 41 41 42 41 41 41 41 42 42 42 42 42 43 43 43 43 43 42 42 42 42 42 41 41 41 41 41 42 42 42 42 42 42 42 42 42 42 42 41 41 42
39 39 39 39 39 40 40 41 41 41 41 42 42 42 42 42 42 41 41 41 41 41 40 40 41 41 40 40 40 41 41 41 41 41 41 41 42 42 42 42 42 42 42 42 42 42 42 42 42 42 41 41 41 41 41 41 41 42 42 41 41 41 41 41 41 41 40 40 40
40 40 40 40 40 40 40 41 41 41 41 41 41 41 41 41 41 40 40 40 41 40 40 40 40 40 40 40 40 40 41 41 41 41 41 41 41 41 41 41 41 41 41 41 41 41 41 41 42 42 41 41 41 41 41 41 41 41 41 41 41 41 41 40 40 40 40 39 39
40 40 41 41 41 41 41 41 41 41 41 41 41 40 40 40 40 40 39 40 40 40 40 40 39 39 39 39 40 40 41 41 41 41 40 40 40 41 41 41 40 40 40 40 40 41 41 41 41 41 41 41 41 41 41 41 41 41 41 41 41 41 41 41 40 40 40 39 39
40 41 41 41 41 41 40 40 40 40 40 40 40 40 39 39 39 38 38 38 38 38 38 38 38 38 39 39 39 40 40 41 40 40 40 40 40 40 41 40 40 39 39 39 40 40 40 41 41 41 41 41 41 41 41 41 41 41 41 41 41 41 41 40 40 40 40 39 39
40 41 41 41 41 40 40 40 40 40 40 39 39 39 39 38 37 37 37 36 37 37 37 37 36 37 38 38 38 39 39 40 40 40 40 39 39 39 39 39 38 38 38 38 39 39 40 40 40 40 40 41 40 41 41 41 41 41 40 40 41 41 40 40 40 40 40 40 40
40 40 40 40 40 40 40 39 39 39 39 38 38 38 37 37 36 36 36 36 36 36 35 35 35 36 36 37 37 37 37 38 38 38 38 39 38 38 37 37 37 38 38 38 40 41 41 41 41 40 40 40 40 40 41 41 40 40 40 40 40 40 40 40 39 39 39 39 39
40 40 40 40 39 39 39 39 39 38 38 37 37 37 37 36 36 36 36 35 35 34 34 35 35 35 35 35 35 35 35 35 35 35 36 36 36 35 35 35 36 37 38 39 43 44 45 45 43 42 40 39 39 40 40 40 39 39 39 39 39 38 38 38 38 37 37 36 36
40 40 39 39 39 39 38 38 37 37 36 36 36 36 36 35 35 35 35 34 34 34 35 35 35 36 36 34 35 34 34 33 33 33 34 34 34 34 34 34 35 36 38 41 44 45 46 46 45 44 41 39 38 38 37 37 37 37 37 37 36 36 35 35 34 34 34 33 32
39 39 39 39 39 38 38 37 37 36 36 35 35 35 35 35 35 35 35 35 34 34 35 35 35 36 37 35 35 35 34 34 34 34 34 34 35 35 35 36 36 37 39 42 44 45 46 46 46 45 43 39 36 35 34 33 33 34 34 34 34 33 33 32 32 32 32 32 31
39 39 38 38 38 38 37 37 37 36 36 35 35 35 35 35 36 35 35 35 35 35 35 35 35 36 36 35 35 34 34 34 34 33 33 34 34 34 34 34 35 36 39 43 44 45 46 46 46 45 44 40 34 32 32 31 31 31 31 31 31 31 31 31 32 32 31 31 31
38 38 38 37 37 37 37 37 37 36 36 36 36 36 36 35 35 36 36 36 36 35 35 35 36 36 35 34 33 33 33 33 33 33 32 32 32 33 33 33 33 35 39 43 44 45 45 45 45 45 45 43 37 32 30 30 30 30 30 31 30 30 30 30 31 30 30 30 30
38 37 37 37 37 37 36 36 36 36 36 36 36 36 36 36 36 36 36 36 36 36 36 35 36 35 34 33 32 32 32 32 31 31 31 31 31 31 32 32 31 33 38 43 44 44 45 45 45 45 45 44 39 34 30 29 29 29 29 29 28 28 28 28 28 28 29 29 29
37 37 37 37 36 36 36 36 36 36 36 36 36 36 36 36 36 35 35 35 35 36 36 35 34 34 33 32 31 31 31 31 31 31 31 30 32 31 30 29 29 32 37 42 43 44 44 44 44 44 44 44 39 33 29 28 28 28 28 28 28 28 28 28 28 28 28 28 28
36 36 36 36 36 36 36 36 36 36 36 36 35 35 35 35 34 34 34 34 35 35 35 34 33 33 33 32 32 31 31 31 31 31 30 30 29 29 29 29 28 32 37 42 43 43 43 43 43 44 44 44 38 32 28 28 28 27 27 27 28 28 28 30 29 29 28 28 28
35 36 36 36 36 36 36 36 36 36 36 36 35 35 35 35 34 34 34 35 35 34 34 33 33 33 32 32 31 31 30 30 30 30 30 29 28 28 28 28 28 32 38 42 42 43 43 43 43 43 43 43 36 31 28 27 27 27 27 27 28 28 28 27 28 28 28 28 28
35 35 35 35 35 35 35 35 35 35 35 35 35 35 34 34 34 34 34 34 34 33 32 32 31 31 30 30 29 29 29 31 29 28 27 26 26 26 27 27 27 33 39 41 42 42 42 43 43 43 43 41 34 29 27 26 27 27 27 27 27 27 28 28 27 27 28 27 28
34 34 34 34 34 34 34 34 34 34 34 34 34 34 33 33 33 33 33 34 33 31 29 29 28 27 27 27 27 28 29 29 27 27 26 26 26 26 27 26 27 32 38 41 42 42 42 43 43 43 41 38 31 27 26 26 26 26 27 27 27 27 27 28 28 28 28 27 27
34 33 33 33 33 33 32 33 33 33 33 32 33 32 32 32 31 31 31 32 31 29 27 26 26 25 25 26 26 28 29 27 26 26 26 26 26 25 25 25 26 31 37 40 41 42 42 42 43 42 40 34 28 26 26 26 26 26 26 26 27 27 27 28 28 28 28 28 27
32 32 32 32 31 31 31 31 31 31 31 31 31 31 30 30 29 29 29 30 28 26 26 25 25 25 25 25 25 26 26 25 25 25 25 26 26 25 24 25 25 29 34 39 41 42 42 42 42 41 38 32 28 27 28 28 27 26 26 26 27 27 27 28 28 28 28 28 30
31 30 30 30 29 29 28 28 29 28 28 28 28 28 28 27 27 27 28 30 27 26 25 25 25 25 24 24 24 24 24 23 24 25 25 25 25 25 25 25 25 27 32 38 40 41 42 42 42 41 39 33 31 30 30 30 28 28 27 27 27 27 27 28 29 29 29 29 34
29 28 28 28 27 26 26 26 26 26 26 26 26 26 25 25 25 26 27 28 25 24 24 24 24 24 24 26 24 24 23 23 24 25 25 24 26 28 29 26 25 27 31 37 40 41 41 42 41 41 40 36 33 32 31 30 30 30 30 29 28 27 27 29 29 30 30 31 36
27 26 26 26 25 25 24 24 25 25 24 24 24 24 24 25 26 27 27 25 24 23 23 23 23 23 24 28 25 23 22 23 23 24 25 26 27 30 31 27 25 26 29 35 39 41 41 41 41 41 40 37 35 33 32 31 32 31 30 28 29 29 30 32 31 32 33 32 35
25 25 26 25 25 24 24 24 24 24 24 24 24 24 25 26 26 25 24 23 23 23 23 23 23 23 24 27 24 22 22 23 24 24 25 26 27 29 30 26 24 24 27 32 38 40 41 41 41 41 40 38 36 34 33 33 32 31 30 30 31 31 32 32 32 32 32 31 31
MSLP
1008.74 1008.94 1009.22 1009.46 1009.58 1009.86 1010.22 1010.54 1010.58 1010.70 1010.86 1010.98 1011.06 1011.30 1011.50 1011.62 1011.66 1011.70 1011.78 1011.90 1012.06 1012.30 1012.46 1012.62 1012.78 1012.90 1013.02 1013.02 1013.06 1013.10 1013.18 1013.26 1013.30 1013.38 1013.42 1013.46 1013.46 1013.46 1013.46 1013.38 1013.26 1013.18 1013.14 1013.10 1013.02 1012.98 1012.90 1012.86 1012.74 1012.74 1012.78 1012.82 1012.90 1012.98 1013.02 1012.98 1012.86 1012.78 1012.66 1012.54 1012.42 1012.38 1012.30 1012.34 1012.42 1012.34 1012.26 1012.18 1012.14
1008.78 1009.02 1009.30 1009.58 1009.86 1010.30 1010.66 1010.74 1010.82 1010.90 1011.02 1011.18 1011.38 1011.58 1011.78 1011.82 1011.78 1011.86 1011.98 1012.14 1012.34 1012.50 1012.66 1012.82 1012.98 1013.10 1013.18 1013.26 1013.34 1013.38 1013.46 1013.50 1013.58 1013.62 1013.62 1013.62 1013.62 1013.58 1013.50 1013.42 1013.30 1013.30 1013.30 1013.26 1013.22 1013.18 1013.14 1013.06 1013.02 1013.02 1013.02 1013.06 1013.14 1013.14 1013.14 1013.14 1013.10 1013.02 1012.90 1012.78 1012.70 1012.58 1012.58 1012.58 1012.54 1012.42 1012.30 1012.26 1012.30
1009.10 1009.22 1009.46 1009.86 1010.30 1010.58 1010.74 1010.90 1011.06 1011.18 1011.30 1011.46 1011.70 1011.94 1012.10 1012.10 1011.98 1012.02 1012.18 1012.42 1012.54 1012.62 1012.78 1012.98 1013.14 1013.26 1013.34 1013.46 1013.58 1013.62 1013.70 1013.74 1013.78 1013.78 1013.74 1013.74 1013.66 1013.58 1013.50 1013.42 1013.38 1013.42 1013.46 1013.50 1013.46 1013.46 1013.46 1013.38 1013.34 1013.38 1013.42 1013.42 1013.46 1013.46 1013.46 1013.42 1013.30 1013.22 1013.14 1013.10 1013.02 1012.94 1012.86 1012.86 1012.82 1012.70 1012.50 1012.42 1012.38
1009.42 1009.58 1009.86 1010.38 1010.62 1010.78 1010.90 1011.06 1011.26 1011.46 1011.58 1011.74 1011.94 1012.14 1012.30 1012.30 1012.26 1012.30 1012.46 1012.62 1012.74 1012.82 1012.98 1013.14 1013.30 1013.42 1013.58 1013.66 1013.74 1013.86 1013.90 1013.90 1013.90 1013.86 1013.78 1013.74 1013.62 1013.58 1013.54 1013.50 1013.54 1013.58 1013.70 1013.74 1013.74 1013.74 1013.74 1013.70 1013.66 1013.66 1013.70 1013.74 1013.70 1013.70 1013.70 1013.62 1013.54 1013.46 1013.42 1013.46 1013.42 1013.30 1013.22 1013.18 1013.14 1013.02 1012.86 1012.74 1012.70
1009.70 1009.90 1010.22 1010.58 1010.74 1010.94 1011.10 1011.26 1011.46 1011.62 1011.78 1011.90 1012.10 1012.30 1012.46 1012.50 1012.54 1012.58 1012.74 1012.82 1012.98 1013.10 1013.22 1013.30 1013.46 1013.62 1013.74 1013.82 1013.94 1014.02 1014.02 1014.02 1013.94 1013.82 1013.74 1013.66 1013.62 1013.58 1013.62 1013.66 1013.74 1013.86 1013.94 1013.94 1013.98 1013.98 1013.98 1013.94 1013.94 1013.94 1013.94 1013.90 1013.90 1013.94 1013.90 1013.86 1013.74 1013.66 1013.62 1013.62 1013.58 1013.54 1013.50 1013.46 1013.46 1013.38 1013.26 1013.14 1013.10
1010.14 1010.30 1010.46 1010.70 1010.86 1011.14 1011.34 1011.54 1011.66 1011.78 1011.90 1012.10 1012.26 1012.42 1012.58 1012.74 1012.78 1012.86 1012.98 1013.10 1013.18 1013.30 1013.42 1013.50 1013.62 1013.78 1013.90 1014.02 1014.02 1014.06 1014.02 1014.02 1013.86 1013.74 1013.62 1013.58 1013.62 1013.74 1013.82 1013.90 1014.02 1014.14 1014.18 1014.26 1014.26 1014.26 1014.22 1014.14 1014.14 1014.14 1014.18 1014.14 1014.14 1014.10 1014.06 1014.02 1013.90 1013.82 1013.74 1013.74 1013.74 1013.70 1013.66 1013.66 1013.58 1013.54 1013.46 1013.46 1013.38
1010.54 1010.70 1010.86 1011.02 1011.18 1011.42 1011.58 1011.74 1011.90 1012.02 1012.14 1012.30 1012.42 1012.58 1012.78 1012.86 1012.90 1013.02 1013.18 1013.34 1013.42 1013.50 1013.58 1013.70 1013.82 1013.98 1014.06 1014.14 1014.14 1014.06 1013.98 1013.86 1013.74 1013.62 1013.58 1013.66 1013.78 1013.94 1014.10 1014.22 1014.30 1014.42 1014.46 1014.50 1014.50 1014.50 1014.42 1014.38 1014.34 1014.38 1014.42 1014.38 1014.34 1014.30 1014.26 1014.18 1014.10 1014.02 1013.90 1013.86 1013.82 1013.78 1013.78 1013.74 1013.74 1013.70 1013.62 1013.58 1013.54
1010.98 1011.14 1011.30 1011.46 1011.58 1011.74 1011.86 1011.98 1012.14 1012.26 1012.38 1012.50 1012.70 1012.86 1013.02 1013.06 1013.14 1013.30 1013.46 1013.58 1013.70 1013.74 1013.82 1013.94 1014.10 1014.22 1014.30 1014.26 1014.10 1013.90 1013.74 1013.62 1013.62 1013.62 1013.70 1013.86 1014.06 1014.26 1014.42 1014.50 1014.58 1014.62 1014.70 1014.74 1014.70 1014.70 1014.66 1014.58 1014.58 1014.58 1014.62 1014.58 1014.58 1014.54 1014.46 1014.38 1014.26 1014.14 1014.14 1014.06 1014.02 1014.02 1013.98 1013.90 1013.86 1013.86 1013.82 1013.74 1013.74
1011.46 1011.58 1011.74 1011.82 1011.94 1012.06 1012.18 1012.30 1012.46 1012.50 1012.54 1012.66 1012.94 1013.14 1013.30 1013.42 1013.50 1013.62 1013.74 1013.82 1013.86 1013.98 1014.06 1014.14 1014.30 1014.34 1014.26 1014.02 1013.82 1013.66 1013.58 1013.58 1013.74 1013.90 1014.10 1014.30 1014.46 1014.58 1014.62 1014.70 1014.74 1014.82 1014.86 1014.86 1014.86 1014.86 1014.82 1014.78 1014.82 1014.86 1014.86 1014.82 1014.82 1014.74 1014.70 1014.58 1014.46 1014.34 1014.30 1014.22 1014.18 1014.14 1014.14 1014.10 1014.10 1014.02 1013.98 1013.94 1013.94
1011.82 1012.02 1012.10 1012.14 1012.26 1012.42 1012.58 1012.74 1012.74 1012.70 1012.70 1012.86 1013.22 1013.46 1013.58 1013.74 1013.86 1013.86 1013.90 1013.98 1014.02 1014.10 1014.18 1014.26 1014.26 1014.14 1013.94 1013.78 1013.70 1013.70 1013.78 1013.94 1014.14 1014.42 1014.58 1014.70 1014.70 1014.70 1014.74 1014.78 1014.86 1014.98 1015.02 1015.02 1015.02 1014.98 1014.94 1014.94 1015.02 1015.02 1015.02 1014.98 1014.98 1014.94 1014.86 1014.74 1014.66 1014.58 1014.46 1014.38 1014.30 1014.30 1014.26 1014.22 1014.18 1014.18 1014.14 1014.14 1014.14
1012.14 1012.30 1012.38 1012.42 1012.58 1012.74 1012.86 1013.02 1013.02 1012.98 1012.98 1013.14 1013.46 1013.78 1014.02 1014.10 1014.06 1014.02 1014.06 1014.06 1014.10 1014.14 1014.14 1014.14 1014.02 1013.86 1013.82 1013.82 1013.86 1014.02 1014.26 1014.46 1014.66 1014.78 1014.82 1014.78 1014.74 1014.74 1014.78 1014.90 1015.02 1015.06 1015.14 1015.14 1015.10 1015.06 1015.02 1015.02 1015.14 1015.14 1015.14 1015.10 1015.06 1015.02 1014.98 1014.86 1014.78 1014.70 1014.58 1014.50 1014.42 1014.38 1014.34 1014.30 1014.30 1014.30 1014.30 1014.26 1014.26
1012.42 1012.62 1012.74 1012.86 1012.98 1013.06 1013.10 1013.14 1013.22 1013.30 1013.34 1013.46 1013.74 1014.10 1014.30 1014.30 1014.18 1014.14 1014.14 1014.10 1014.06 1014.06 1014.06 1014.02 1013.94 1013.94 1014.02 1014.14 1014.38 1014.58 1014.74 1014.86 1014.94 1014.86 1014.82 1014.78 1014.78 1014.86 1014.98 1015.06 1015.14 1015.14 1015.14 1015.18 1015.14 1015.14 1015.14 1015.14 1015.18 1015.18 1015.14 1015.14 1015.14 1015.10 1015.02 1014.94 1014.86 1014.78 1014.70 1014.58 1014.50 1014.42 1014.38 1014.34 1014.34 1014.30 1014.30 1014.30 1014.30
1012.78 1012.98 1013.14 1013.22 1013.30 1013.30 1013.30 1013.34 1013.54 1013.66 1013.74 1013.86 1014.14 1014.38 1014.46 1014.34 1014.22 1014.14 1014.14 1014.06 1014.02 1014.02 1014.06 1014.06 1014.14 1014.30 1014.50 1014.74 1014.90 1015.02 1015.06 1015.02 1014.94 1014.82 1014.78 1014.86 1014.98 1015.10 1015.14 1015.18 1015.18 1015.22 1015.26 1015.30 1015.26 1015.26 1015.26 1015.22 1015.26 1015.26 1015.26 1015.26 1015.18 1015.14 1015.06 1015.02 1014.94 1014.86 1014.74 1014.70 1014.58 1014.50 1014.42 1014.38 1014.34 1014.30 1014.30 1014.30 1014.30
1013.14 1013.30 1013.46 1013.54 1013.50 1013.46 1013.54 1013.70 1013.90 1014.02 1014.10 1014.26 1014.38 1014.42 1014.38 1014.22 1014.14 1014.10 1014.06 1014.10 1014.10 1014.14 1014.30 1014.42 1014.58 1014.78 1015.02 1015.14 1015.22 1015.18 1015.10 1014.94 1014.86 1014.86 1015.02 1015.14 1015.30 1015.30 1015.30 1015.30 1015.30 1015.34 1015.42 1015.42 1015.38 1015.38 1015.42 1015.42 1015.42 1015.42 1015.38 1015.34 1015.30 1015.22 1015.14 1015.10 1014.98 1014.90 1014.86 1014.82 1014.74 1014.66 1014.58 1014.50 1014.42 1014.42 1014.38 1014.38 1014.30
1013.50 1013.66 1013.74 1013.78 1013.74 1013.74 1013.86 1014.02 1014.22 1014.38 1014.42 1014.46 1014.42 1014.34 1014.22 1014.14 1014.14 1014.14 1014.18 1014.26 1014.38 1014.50 1014.70 1014.86 1015.02 1015.14 1015.26 1015.30 1015.26 1015.14 1015.02 1014.98 1015.02 1015.18 1015.38 1015.46 1015.46 1015.38 1015.38 1015.38 1015.46 1015.54 1015.58 1015.58 1015.58 1015.58 1015.58 1015.58 1015.58 1015.50 1015.46 1015.46 1015.42 1015.34 1015.30 1015.18 1015.10 1015.02 1014.98 1014.90 1014.86 1014.82 1014.74 1014.66 1014.58 1014.54 1014.50 1014.46 1014.42
1013.86 1014.02 1014.10 1014.10 1014.14 1014.14 1014.22 1014.30 1014.50 1014.62 1014.62 1014.50 1014.42 1014.30 1014.22 1014.22 1014.30 1014.38 1014.46 1014.62 1014.78 1014.90 1015.06 1015.14 1015.30 1015.30 1015.30 1015.22 1015.14 1015.14 1015.18 1015.30 1015.42 1015.46 1015.54 1015.58 1015.54 1015.50 1015.50 1015.58 1015.66 1015.74 1015.74 1015.74 1015.74 1015.70 1015.70 1015.70 1015.66 1015.58 1015.58 1015.54 1015.50 1015.46 1015.38 1015.30 1015.22 1015.14 1015.10 1015.02 1014.98 1014.90 1014.86 1014.78 1014.74 1014.66 1014.58 1014.58 1014.46
1014.22 1014.38 1014.42 1014.46 1014.54 1014.54 1014.58 1014.58 1014.70 1014.74 1014.70 1014.58 1014.50 1014.42 1014.42 1014.46 1014.58 1014.74 1014.90 1015.06 1015.14 1015.22 1015.30 1015.34 1015.34 1015.30 1015.26 1015.26 1015.30 1015.46 1015.58 1015.62 1015.62 1015.66 1015.66 1015.66 1015.70 1015.70 1015.74 1015.82 1015.86 1015.94 1015.98 1015.94 1015.86 1015.86 1015.78 1015.74 1015.74 1015.70 1015.66 1015.62 1015.58 1015.54 1015.46 1015.38 1015.30 1015.22 1015.14 1015.10 1015.02 1014.98 1014.90 1014.86 1014.78 1014.74 1014.70 1014.58 1014.58
1014.58 1014.66 1014.74 1014.82 1014.86 1014.86 1014.86 1014.86 1014.94 1014.94 1014.86 1014.78 1014.74 1014.74 1014.74 1014.86 1014.98 1015.14 1015.30 1015.38 1015.42 1015.46 1015.46 1015.42 1015.34 1015.34 1015.42 1015.54 1015.66 1015.74 1015.78 1015.82 1015.82 1015.82 1015.82 1015.82 1015.86 1015.86 1015.90 1015.98 1016.06 1016.10 1016.14 1016.10 1016.06 1016.02 1015.98 1015.90 1015.86 1015.82 1015.74 1015.70 1015.66 1015.58 1015.54 1015.46 1015.38 1015.30 1015.22 1015.14 1015.10 1015.06 1015.02 1014.94 1014.86 1014.82 1014.78 1014.74 1014.66
1014.82 1014.94 1015.02 1015.14 1015.14 1015.10 1015.10 1015.10 1015.14 1015.18 1015.18 1015.14 1015.10 1015.10 1015.14 1015.18 1015.30 1015.46 1015.54 1015.62 1015.58 1015.54 1015.46 1015.46 1015.46 1015.58 1015.74 1015.86 1015.98 1016.02 1015.98 1015.98 1015.98 1015.98 1015.98 1015.98 1016.02 1016.02 1016.06 1016.14 1016.18 1016.26 1016.26 1016.22 1016.22 1016.18 1016.14 1016.06 1015.98 1015.90 1015.86 1015.82 1015.74 1015.66 1015.58 1015.50 1015.46 1015.38 1015.30 1015.26 1015.18 1015.14 1015.10 1015.02 1014.94 1014.86 1014.82 1014.78 1014.74
1015.02 1015.14 1015.30 1015.34 1015.30 1015.30 1015.30 1015.38 1015.46 1015.54 1015.54 1015.50 1015.46 1015.42 1015.46 1015.54 1015.62 1015.70 1015.78 1015.82 1015.74 1015.62 1015.58 1015.62 1015.74 1015.86 1016.06 1016.18 1016.18 1016.18 1016.14 1016.06 1016.06 1016.10 1016.10 1016.14 1016.14 1016.22 1016.30 1016.30 1016.34 1016.38 1016.38 1016.42 1016.38 1016.30 1016.26 1016.18 1016.10 1016.02 1015.98 1015.94 1015.86 1015.78 1015.70 1015.62 1015.58 1015.50 1015.46 1015.38 1015.30 1015.22 1015.14 1015.02 1014.98 1014.90 1014.86 1014.82 1014.74
1015.14 1015.30 1015.50 1015.58 1015.54 1015.54 1015.58 1015.74 1015.82 1015.86 1015.86 1015.78 1015.74 1015.74 1015.78 1015.86 1015.90 1015.98 1015.98 1015.94 1015.86 1015.78 1015.78 1015.90 1016.06 1016.26 1016.38 1016.42 1016.42 1016.34 1016.30 1016.22 1016.18 1016.22 1016.26 1016.30 1016.34 1016.38 1016.42 1016.46 1016.46 1016.46 1016.50 1016.50 1016.46 1016.42 1016.38 1016.30 1016.22 1016.14 1016.06 1016.02 1015.94 1015.86 1015.82 1015.74 1015.70 1015.62 1015.58 1015.46 1015.38 1015.26 1015.14 1015.06 1015.02 1014.94 1014.86 1014.82 1014.74
1015.34 1015.58 1015.78 1015.86 1015.86 1015.86 1015.90 1016.02 1016.10 1016.10 1016.10 1016.02 1015.98 1016.02 1016.02 1016.14 1016.14 1016.14 1016.10 1016.02 1015.98 1015.98 1016.10 1016.30 1016.42 1016.58 1016.62 1016.58 1016.54 1016.46 1016.42 1016.34 1016.34 1016.38 1016.42 1016.46 1016.50 1016.54 1016.58 1016.58 1016.62 1016.62 1016.58 1016.62 1016.62 1016.58 1016.46 1016.38 1016.30 1016.22 1016.14 1016.10 1016.06 1016.02 1015.94 1015.86 1015.82 1015.74 1015.66 1015.58 1015.46 1015.34 1015.26 1015.14 1015.06 1015.02 1014.90 1014.82 1014.78
1015.74 1015.98 1016.14 1016.22 1016.14 1016.10 1016.14 1016.22 1016.22 1016.22 1016.18 1016.18 1016.18 1016.22 1016.26 1016.30 1016.34 1016.30 1016.22 1016.14 1016.18 1016.30 1016.46 1016.62 1016.74 1016.74 1016.74 1016.70 1016.62 1016.58 1016.54 1016.50 1016.54 1016.54 1016.58 1016.62 1016.66 1016.70 1016.70 1016.74 1016.74 1016.74 1016.78 1016.78 1016.74 1016.70 1016.58 1016.42 1016.34 1016.30 1016.26 1016.22 1016.18 1016.14 1016.10 1016.02 1015.94 1015.86 1015.78 1015.70 1015.58 1015.46 1015.30 1015.22 1015.14 1015.06 1015.02 1014.90 1014.82
1016.14 1016.34 1016.42 1016.34 1016.26 1016.22 1016.26 1016.26 1016.30 1016.30 1016.30 1016.38 1016.42 1016.46 1016.46 1016.46 1016.42 1016.38 1016.38 1016.42 1016.54 1016.66 1016.74 1016.86 1016.86 1016.86 1016.78 1016.74 1016.70 1016.66 1016.70 1016.74 1016.74 1016.74 1016.74 1016.78 1016.78 1016.82 1016.86 1016.86 1016.86 1016.86 1016.90 1016.90 1016.86 1016.74 1016.58 1016.46 1016.42 1016.34 1016.30 1016.30 1016.30 1016.26 1016.22 1016.18 1016.10 1016.02 1015.94 1015.82 1015.70 1015.58 1015.46 1015.34 1015.26 1015.18 1015.10 1015.02 1014.90
1016.50 1016.58 1016.50 1016.38 1016.30 1016.30 1016.34 1016.38 1016.42 1016.50 1016.58 1016.62 1016.66 1016.62 1016.62 1016.62 1016.62 1016.62 1016.66 1016.74 1016.82 1016.90 1016.98 1016.98 1016.98 1016.86 1016.82 1016.74 1016.74 1016.82 1016.86 1016.94 1017.02 1017.02 1017.02 1016.94 1016.94 1016.98 1017.02 1017.02 1017.06 1017.06 1017.02 1016.98 1016.86 1016.70 1016.58 1016.46 1016.42 1016.38 1016.34 1016.38 1016.34 1016.30 1016.30 1016.26 1016.22 1016.18 1016.10 1016.02 1015.86 1015.74 1015.62 1015.50 1015.42 1015.30 1015.26 1015.14 1015.06
1016.70 1016.62 1016.58 1016.50 1016.46 1016.50 1016.58 1016.66 1016.74 1016.82 1016.86 1016.90 1016.86 1016.86 1016.86 1016.86 1016.86 1016.90 1016.98 1017.02 1017.10 1017.14 1017.10 1017.06 1017.02 1016.94 1016.90 1016.90 1016.94 1017.02 1017.10 1017.18 1017.18 1017.22 1017.22 1017.18 1017.18 1017.22 1017.22 1017.26 1017.22 1017.18 1017.14 1017.02 1016.86 1016.70 1016.58 1016.46 1016.38 1016.38 1016.38 1016.38 1016.38 1016.38 1016.38 1016.34 1016.30 1016.30 1016.22 1016.14 1016.06 1015.94 1015.86 1015.74 1015.58 1015.50 1015.42 1015.30 1015.22
1016.82 1016.78 1016.78 1016.74 1016.74 1016.82 1016.94 1017.02 1017.06 1017.10 1017.14 1017.14 1017.14 1017.14 1017.14 1017.14 1017.14 1017.14 1017.18 1017.26 1017.30 1017.26 1017.18 1017.14 1017.10 1017.06 1017.06 1017.10 1017.18 1017.26 1017.30 1017.34 1017.34 1017.34 1017.38 1017.42 1017.46 1017.46 1017.46 1017.42 1017.38 1017.30 1017.22 1017.02 1016.86 1016.66 1016.54 1016.42 1016.38 1016.30 1016.30 1016.38 1016.42 1016.42 1016.46 1016.42 1016.42 1016.38 1016.34 1016.26 1016.18 1016.10 1016.02 1015.94 1015.82 1015.70 1015.58 1015.42 1015.30
1017.02 1017.02 1017.02 1017.02 1017.10 1017.18 1017.30 1017.30 1017.30 1017.34 1017.34 1017.38 1017.38 1017.42 1017.42 1017.34 1017.34 1017.38 1017.46 1017.46 1017.42 1017.34 1017.30 1017.30 1017.30 1017.30 1017.30 1017.34 1017.46 1017.54 1017.54 1017.50 1017.54 1017.58 1017.58 1017.62 1017.62 1017.66 1017.66 1017.58 1017.50 1017.42 1017.26 1017.02 1016.82 1016.62 1016.46 1016.42 1016.34 1016.30 1016.30 1016.34 1016.42 1016.50 1016.54 1016.54 1016.50 1016.46 1016.42 1016.34 1016.26 1016.18 1016.14 1016.02 1015.90 1015.78 1015.66 1015.50 1015.34
1017.30 1017.34 1017.34 1017.34 1017.46 1017.50 1017.54 1017.58 1017.58 1017.62 1017.66 1017.66 1017.62 1017.58 1017.58 1017.58 1017.58 1017.58 1017.58 1017.58 1017.54 1017.54 1017.58 1017.58 1017.50 1017.50 1017.54 1017.66 1017.70 1017.74 1017.74 1017.74 1017.74 1017.74 1017.82 1017.86 1017.86 1017.86 1017.78 1017.74 1017.62 1017.50 1017.30 1017.02 1016.82 1016.62 1016.50 1016.42 1016.34 1016.30 1016.30 1016.30 1016.42 1016.54 1016.58 1016.58 1016.54 1016.50 1016.42 1016.38 1016.30 1016.26 1016.18 1016.06 1015.94 1015.82 1015.70 1015.58 1015.46
1017.62 1017.62 1017.62 1017.70 1017.74 1017.78 1017.82 1017.86 1017.86 1017.86 1017.86 1017.86 1017.82 1017.78 1017.74 1017.74 1017.74 1017.70 1017.70 1017.70 1017.70 1017.74 1017.74 1017.74 1017.78 1017.82 1017.86 1017.90 1017.86 1017.86 1017.86 1017.94 1017.98 1018.02 1018.02 1018.10 1018.02 1017.98 1017.90 1017.78 1017.70 1017.54 1017.30 1017.06 1016.86 1016.66 1016.54 1016.42 1016.38 1016.34 1016.30 1016.26 1016.34 1016.46 1016.58 1016.58 1016.58 1016.54 1016.50 1016.42 1016.34 1016.30 1016.22 1016.14 1015.98 1015.86 1015.74 1015.62 1015.46
1017.90 1017.94 1017.94 1017.94 1018.02 1018.02 1018.02 1018.06 1018.06 1018.06 1018.02 1018.02 1017.98 1017.98 1017.90 1017.86 1017.86 1017.86 1017.86 1017.86 1017.90 1017.90 1017.94 1017.98 1018.02 1018.06 1018.06 1018.02 1018.06 1018.10 1018.14 1018.18 1018.22 1018.22 1018.22 1018.18 1018.14 1018.02 1017.94 1017.86 1017.74 1017.58 1017.30 1017.06 1016.86 1016.74 1016.58 1016.50 1016.42 1016.38 1016.30 1016.30 1016.42 1016.54 1016.62 1016.66 1016.62 1016.58 1016.58 1016.50 1016.42 1016.30 1016.22 1016.10 1016.02 1015.86 1015.74 1015.66 1015.54
1018.26 1018.26 1018.22 1018.22 1018.26 1018.30 1018.30 1018.30 1018.26 1018.22 1018.18 1018.18 1018.14 1018.14 1018.10 1018.14 1018.14 1018.10 1018.14 1018.14 1018.14 1018.14 1018.14 1018.14 1018.18 1018.18 1018.18 1018.18 1018.26 1018.34 1018.38 1018.38 1018.38 1018.38 1018.30 1018.30 1018.22 1018.10 1017.98 1017.86 1017.74 1017.58 1017.34 1017.06 1016.86 1016.74 1016.62 1016.54 1016.42 1016.42 1016.30 1016.30 1016.46 1016.66 1016.70 1016.74 1016.70 1016.66 1016.58 1016.54 1016.42 1016.34 1016.22 1016.14 1016.02 1015.90 1015.74 1015.66 1015.58
1018.54 1018.50 1018.50 1018.50 1018.54 1018.54 1018.54 1018.54 1018.46 1018.42 1018.42 1018.42 1018.38 1018.38 1018.38 1018.38 1018.38 1018.38 1018.38 1018.34 1018.34 1018.34 1018.34 1018.34 1018.34 1018.42 1018.42 1018.46 1018.54 1018.58 1018.54 1018.54 1018.50 1018.42 1018.34 1018.30 1018.22 1018.10 1017.98 1017.82 1017.74 1017.54 1017.30 1017.02 1016.86 1016.74 1016.66 1016.58 1016.46 1016.42 1016.34 1016.30 1016.58 1016.74 1016.78 1016.82 1016.78 1016.74 1016.66 1016.58 1016.46 1016.34 1016.26 1016.14 1016.02 1015.90 1015.78 1015.66 1015.54
1018.74 1018.74 1018.74 1018.74 1018.74 1018.74 1018.74 1018.74 1018.70 1018.66 1018.66 1018.62 1018.62 1018.62 1018.62 1018.62 1018.62 1018.62 1018.58 1018.54 1018.54 1018.54 1018.54 1018.54 1018.58 1018.62 1018.66 1018.74 1018.74 1018.74 1018.70 1018.58 1018.54 1018.46 1018.42 1018.30 1018.26 1018.14 1017.98 1017.86 1017.70 1017.50 1017.26 1017.02 1016.90 1016.78 1016.70 1016.58 1016.50 1016.42 1016.38 1016.46 1016.70 1016.82 1016.86 1016.86 1016.86 1016.82 1016.74 1016.58 1016.46 1016.34 1016.22 1016.10 1016.02 1015.86 1015.74 1015.58 1015.46
1018.94 1018.90 1018.90 1018.90 1018.90 1018.90 1018.90 1018.86 1018.86 1018.86 1018.86 1018.86 1018.86 1018.86 1018.86 1018.86 1018.82 1018.82 1018.78 1018.74 1018.70 1018.70 1018.70 1018.74 1018.78 1018.82 1018.86 1018.86 1018.86 1018.86 1018.74 1018.66 1018.58 1018.50 1018.42 1018.34 1018.26 1018.14 1017.98 1017.86 1017.70 1017.50 1017.30 1017.06 1016.90 1016.78 1016.66 1016.58 1016.50 1016.42 1016.46 1016.66 1016.86 1016.94 1016.98 1017.02 1016.98 1016.90 1016.82 1016.70 1016.54 1016.34 1016.22 1016.10 1015.94 1015.78 1015.66 1015.58 1015.46
1019.14 1019.14 1019.14 1019.14 1019.14 1019.14 1019.14 1019.10 1019.10 1019.06 1019.06 1019.06 1019.06 1019.06 1019.06 1019.06 1019.02 1019.02 1018.98 1018.86 1018.86 1018.90 1018.94 1018.98 1019.02 1019.02 1019.02 1019.02 1018.98 1018.86 1018.74 1018.74 1018.66 1018.58 1018.42 1018.30 1018.26 1018.14 1018.02 1017.90 1017.78 1017.58 1017.34 1017.14 1016.98 1016.82 1016.70 1016.58 1016.50 1016.46 1016.58 1016.78 1016.90 1017.02 1017.06 1017.10 1017.06 1017.02 1016.90 1016.74 1016.58 1016.42 1016.26 1016.10 1015.94 1015.82 1015.70 1015.58 1015.42
1019.46 1019.42 1019.42 1019.38 1019.38 1019.38 1019.38 1019.34 1019.30 1019.30 1019.30 1019.30 1019.30 1019.30 1019.30 1019.30 1019.22 1019.18 1019.14 1019.06 1019.14 1019.18 1019.18 1019.18 1019.18 1019.18 1019.18 1019.14 1019.06 1018.94 1018.86 1018.86 1018.74 1018.62 1018.50 1018.38 1018.30 1018.22 1018.14 1018.02 1017.86 1017.74 1017.50 1017.26 1017.02 1016.86 1016.74 1016.66 1016.58 1016.58 1016.66 1016.86 1016.94 1017.02 1017.06 1017.10 1017.10 1017.02 1016.94 1016.82 1016.66 1016.50 1016.30 1016.14 1016.02 1015.86 1015.74 1015.58 1015.34
1019.74 1019.70 1019.66 1019.66 1019.66 1019.66 1019.62 1019.62 1019.58 1019.58 1019.58 1019.62 1019.58 1019.58 1019.54 1019.50 1019.46 1019.46 1019.38 1019.30 1019.34 1019.42 1019.46 1019.42 1019.42 1019.34 1019.30 1019.18 1019.14 1019.06 1018.98 1018.90 1018.78 1018.74 1018.62 1018.50 1018.42 1018.30 1018.22 1018.14 1017.98 1017.86 1017.66 1017.38 1017.14 1016.94 1016.82 1016.74 1016.66 1016.62 1016.74 1016.86 1016.98 1016.98 1016.98 1017.02 1017.02 1017.02 1016.90 1016.78 1016.66 1016.50 1016.34 1016.14 1016.02 1015.90 1015.74 1015.54 1015.26
1019.94 1019.90 1019.90 1019.90 1019.94 1019.94 1019.90 1019.86 1019.86 1019.86 1019.90 1019.90 1019.86 1019.82 1019.74 1019.74 1019.66 1019.62 1019.58 1019.54 1019.58 1019.58 1019.66 1019.62 1019.58 1019.46 1019.34 1019.26 1019.22 1019.14 1019.10 1018.98 1018.86 1018.78 1018.74 1018.62 1018.54 1018.38 1018.26 1018.22 1018.14 1018.02 1017.82 1017.54 1017.26 1017.02 1016.90 1016.82 1016.74 1016.70 1016.74 1016.86 1016.90 1016.90 1016.90 1016.94 1016.90 1016.86 1016.82 1016.70 1016.58 1016.42 1016.30 1016.14 1015.98 1015.82 1015.66 1015.46 1015.22
1020.18 1020.14 1020.14 1020.14 1020.18 1020.18 1020.14 1020.14 1020.14 1020.14 1020.14 1020.10 1020.06 1020.02 1019.98 1019.90 1019.86 1019.74 1019.74 1019.70 1019.74 1019.74 1019.74 1019.74 1019.70 1019.62 1019.50 1019.38 1019.34 1019.30 1019.22 1019.10 1018.98 1018.86 1018.78 1018.74 1018.58 1018.42 1018.34 1018.34 1018.30 1018.14 1017.98 1017.70 1017.42 1017.18 1017.02 1016.90 1016.82 1016.74 1016.74 1016.82 1016.86 1016.86 1016.86 1016.86 1016.82 1016.74 1016.74 1016.58 1016.46 1016.38 1016.22 1016.06 1015.86 1015.74 1015.58 1015.42 1015.26
1020.42 1020.38 1020.30 1020.34 1020.38 1020.38 1020.38 1020.38 1020.34 1020.30 1020.26 1020.26 1020.22 1020.18 1020.14 1020.02 1020.02 1019.98 1019.90 1019.90 1019.90 1019.86 1019.86 1019.86 1019.82 1019.74 1019.66 1019.58 1019.50 1019.46 1019.38 1019.26 1019.14 1019.02 1018.90 1018.78 1018.70 1018.58 1018.50 1018.50 1018.42 1018.26 1018.06 1017.82 1017.54 1017.30 1017.14 1017.02 1016.86 1016.78 1016.74 1016.74 1016.78 1016.78 1016.74 1016.74 1016.74 1016.70 1016.58 1016.46 1016.34 1016.22 1016.10 1015.94 1015.78 1015.62 1015.50 1015.42 1015.30
Wind_Speed
5 5 5 4 3 1 2 4 4 4 4 5 5 4 4 4 4 5 5 5 5 5 5 5 5 5 5 7 7 8 8 8 8 8 8 8 7 7 6 6 7 7 7 7 6 5 4 4 4 4 4 4 4 4 4 4 5 5 5 5 4 5 5 6 5 5 6 6 5
4 5 5 5 3 2 3 4 5 5 5 5 5 4 4 3 5 5 6 6 5 5 5 5 5 6 6 7 7 7 7 7 7 7 7 7 7 7 7 7 8 8 8 8 7 6 5 5 5 4 4 4 4 4 5 5 5 5 6 7 5 4 4 5 4 5 5 5 5
1 3 5 4 3 4 5 5 5 6 7 6 6 5 4 4 5 6 6 6 6 6 6 5 6 6 7 7 6 6 6 6 6 6 6 6 7 8 8 8 9 9 9 8 8 7 6 6 5 5 5 4 5 5 5 5 5 6 6 7 6 5 4 4 5 5 5 4 5
2 2 4 6 7 7 7 6 7 7 7 7 6 6 5 4 5 6 6 7 7 6 6 5 6 6 6 6 6 6 6 6 6 6 7 7 8 9 9 9 10 9 9 8 8 8 7 6 5 5 5 5 5 5 4 4 5 5 5 5 5 5 5 4 5 5 5 5 6
8 8 8 8 9 9 8 7 8 7 7 6 6 6 5 5 5 6 6 6 6 6 6 6 6 6 6 6 6 6 6 6 7 7 7 8 9 10 10 10 10 9 9 9 8 8 7 6 5 4 4 5 4 4 4 4 5 4 4 4 4 4 4 4 4 4 5 5 5
10 10 10 9 10 9 8 7 8 8 7 7 7 7 6 5 5 6 6 6 7 7 7 7 7 6 6 6 6 6 6 6 7 8 9 10 10 10 11 11 10 10 9 9 8 8 7 5 4 4 4 4 4 4 4 4 4 4 4 4 4 4 4 4 4 4 4 5 6
10 10 10 10 10 10 9 8 8 8 8 8 9 9 8 7 7 8 8 7 6 7 7 6 6 5 5 5 5 5 6 7 8 9 10 10 11 11 11 10 10 10 9 9 8 7 6 5 4 4 4 4 4 4 5 4 4 4 4 4 3 3 4 4 3 4 5 6 7
12 11 11 11 11 10 10 10 9 9 9 8 10 10 10 10 10 9 8 7 6 6 6 5 5 5 4 4 5 6 7 9 9 10 11 10 11 10 10 9 9 9 9 8 8 7 7 5 4 4 4 4 3 4 4 5 4 4 4 4 3 3 3 3 3 4 5 6 6
11 11 11 11 11 11 11 11 10 10 10 11 11 11 11 10 10 9 8 7 6 6 6 5 5 5 5 6 7 8 9 10 10 10 10 9 9 8 8 8 8 8 7 7 7 7 7 5 4 4 4 3 3 4 4 5 4 4 4 3 3 3 3 3 4 4 4 5 5
11 11 11 11 12 12 12 11 11 12 13 13 13 12 11 10 8 7 7 6 6 6 5 4 5 6 7 9 9 9 9 9 9 8 8 7 7 7 7 7 7 7 6 6 5 5 5 4 4 4 4 3 4 4 4 4 4 4 3 2 2 3 3 3 3 4 4 4 4
11 11 10 10 11 12 11 11 11 11 12 13 12 11 9 8 7 7 6 6 7 7 7 6 7 8 9 10 10 9 9 7 6 5 5 6 6 7 7 6 6 6 5 5 4 4 4 3 3 3 3 3 3 3 3 4 3 3 3 2 1 2 2 2 2 2 3 3 3
12 11 10 10 10 11 11 11 10 11 11 12 11 10 8 6 7 7 7 7 8 8 8 9 9 10 10 9 8 7 6 5 5 5 5 6 7 7 7 6 6 6 5 5 4 4 3 3 3 3 3 3 2 2 2 3 3 3 3 3 2 1 1 1 1 1 1 1 1
12 11 11 10 10 11 11 11 10 10 10 11 9 8 6 6 7 7 8 9 9 9 9 9 10 10 9 8 6 5 5 4 6 7 8 8 8 7 7 7 7 7 6 6 5 5 5 5 5 4 4 4 3 3 3 3 3 3 3 3 3 2 1 1 0 0 0 1 1
12 11 10 10 10 10 11 11 9 9 9 9 7 6 6 7 7 8 9 9 9 9 9 9 9 8 7 6 5 5 6 7 8 9 9 8 7 7 8 8 8 8 7 6 6 6 6 6 6 6 5 5 5 5 4 4 4 4 4 4 4 3 3 2 2 2 1 1 1
12 12 11 10 10 10 10 10 8 8 7 7 6 6 7 7 8 9 9 10 10 9 8 8 7 6 6 6 6 7 8 9 9 9 8 7 8 8 8 8 8 8 7 6 6 6 6 6 5 5 5 5 5 5 5 5 5 4 4 4 4 4 4 3 3 3 3 2 2
13 12 11 11 10 10 9 9 7 7 6 6 7 7 8 8 9 9 10 9 8 8 7 7 6 5 6 7 8 8 8 8 8 8 7 8 8 9 9 9 8 7 7 7 6 6 5 5 5 5 5 5 5 5 5 5 5 4 4 4 4 4 4 4 4 4 3 3 3
13 12 12 12 11 11 10 9 8 7 7 8 9 9 9 9 9 9 9 8 7 7 7 7 6 7 7 8 8 8 7 7 7 7 7 8 8 8 8 8 8 7 7 7 7 7 6 6 5 5 4 4 4 4 5 5 5 5 5 4 4 4 4 4 4 4 4 4 4
13 13 12 12 12 12 11 10 9 9 9 10 10 10 9 9 9 9 8 8 7 8 8 8 8 8 9 9 7 6 6 6 7 7 7 7 8 8 8 7 7 7 7 7 7 7 7 7 6 6 5 5 4 4 5 5 5 5 5 5 5 5 4 4 4 4 3 4 4
13 13 12 12 12 12 12 12 11 10 10 10 10 10 10 10 9 9 8 8 8 9 9 9 9 9 9 8 7 6 6 6 7 7 7 7 7 7 7 7 6 6 7 7 7 7 7 7 6 6 6 5 5 5 5 5 5 5 6 5 5 5 5 4 4 4 3 3 4
13 13 12 11 12 12 12 12 11 10 10 9 10 10 11 10 10 9 9 8 8 9 10 10 10 9 8 7 7 6 6 6 6 7 7 6 6 6 6 6 6 6 6 6 6 6 6 6 6 6 6 6 6 6 6 6 6 6 6 5 5 5 5 5 5 4 4 4 4
13 13 12 11 11 12 11 11 10 10 10 10 10 10 10 10 9 9 9 8 8 9 10 10 9 8 7 6 6 6 6 5 6 6 6 6 6 6 5 5 5 5 5 5 6 6 6 6 6 6 6 6 6 7 7 6 6 6 6 6 5 5 6 5 5 5 5 5 5
13 12 11 10 11 11 10 10 9 9 9 10 10 10 9 9 8 8 7 7 8 9 9 8 7 6 6 5 5 5 5 5 5 5 5 5 5 5 5 4 4 4 5 5 6 6 6 5 5 5 5 6 6 7 7 7 7 7 7 7 7 6 6 6 5 5 5 5 5
12 11 10 9 10 10 10 9 9 9 10 10 9 9 9 8 7 7 7 8 8 8 7 5 5 4 4 4 5 5 5 5 5 5 5 5 5 4 4 3 3 3 4 4 5 5 5 4 4 4 4 5 6 6 7 7 7 7 8 8 8 8 7 6 6 6 5 5 5
12 10 8 8 9 10 10 10 10 10 10 10 9 8 8 7 7 7 8 8 8 7 5 4 3 4 4 4 5 5 6 6 6 6 6 6 6 5 4 3 3 2 2 3 4 5 5 4 3 3 3 3 4 5 6 7 7 8 8 9 9 9 8 8 8 7 7 7 6
11 10 9 9 10 10 10 11 11 10 10 9 8 8 8 8 7 7 7 8 7 6 5 5 4 4 4 5 6 6 5 5 5 5 6 7 7 6 5 4 3 2 2 3 6 8 8 6 5 3 2 3 3 4 4 5 6 7 8 8 9 9 9 9 9 8 8 8 7
10 10 10 10 11 11 11 11 10 9 8 7 8 8 8 7 7 7 7 7 6 6 6 6 5 6 6 6 6 6 5 5 5 5 6 6 7 6 6 4 3 3 3 5 8 9 9 9 8 6 4 2 2 3 3 4 5 6 7 7 8 8 8 9 9 9 8 8 7
10 10 11 11 11 11 10 9 9 8 8 7 8 8 8 7 7 7 7 7 6 6 6 6 6 6 6 6 7 6 6 5 5 5 6 6 6 6 6 5 4 4 5 8 10 10 9 9 9 9 7 3 2 2 2 3 4 5 6 6 6 7 7 8 8 8 9 8 8
11 11 11 11 11 10 10 9 9 9 8 8 8 7 7 7 8 8 7 6 6 6 6 6 6 5 5 5 6 6 6 5 5 5 5 5 5 5 5 5 5 6 8 11 12 11 10 9 9 10 9 6 2 1 1 3 4 4 5 5 5 6 7 7 7 8 8 8 8
11 11 11 11 11 10 10 10 9 9 8 7 7 7 7 7 7 7 8 7 7 7 6 5 5 5 5 5 5 6 6 6 5 5 5 5 5 5 5 5 5 7 10 13 13 12 11 11 10 10 10 9 3 1 1 2 3 4 4 5 5 6 6 7 7 7 7 8 8
11 11 11 11 10 10 10 10 9 8 8 7 7 7 7 7 8 8 8 8 8 7 6 5 5 6 6 5 5 5 5 5 5 4 4 5 5 5 5 5 5 7 10 13 13 13 12 12 11 11 11 10 5 3 2 2 3 4 5 5 6 6 7 7 7 7 7 7 7
11 11 11 11 11 10 10 9 9 8 8 8 8 8 8 8 8 8 7 7 6 6 6 6 6 6 6 5 5 5 4 4 4 4 4 4 5 5 5 5 5 7 9 13 13 13 13 13 12 12 12 11 7 4 3 3 3 4 5 5 6 7 7 7 7 7 8 8 8
10 10 10 11 10 10 10 9 9 9 9 9 9 9 9 9 8 6 5 5 5 5 6 6 6 6 6 5 5 4 4 4 4 4 4 4 4 4 4 5 5 7 9 13 13 13 13 13 12 12 12 11 7 5 3 3 4 4 5 6 7 7 7 7 7 7 8 8 8
9 9 9 10 9 9 9 9 9 9 9 9 9 9 9 8 6 5 5 4 4 5 5 5 5 5 5 4 4 4 4 4 4 5 5 5 4 4 4 5 5 7 10 13 14 13 13 13 12 12 11 11 7 5 4 4 4 5 5 5 6 7 7 7 7 7 7 8 7
9 9 9 9 8 8 8 8 8 8 9 9 9 9 8 7 6 6 5 4 4 4 4 4 3 3 3 2 2 3 3 4 4 4 5 5 4 4 4 4 5 7 11 14 14 14 13 12 12 11 10 10 6 5 4 5 5 5 6 7 7 7 7 7 7 7 7 7 6
10 10 9 9 8 8 7 8 8 8 9 9 9 9 8 7 6 6 5 5 4 4 3 3 3 2 2 2 2 2 3 4 5 5 5 5 5 5 5 6 6 9 12 15 14 13 13 12 12 11 9 8 5 4 4 5 5 6 7 8 8 8 8 8 8 7 7 7 6
10 10 9 9 8 8 8 8 8 9 9 9 9 9 8 7 6 5 5 5 4 4 4 4 3 3 3 3 3 3 3 4 5 6 6 6 6 6 6 6 7 9 13 15 14 13 12 12 11 10 8 6 4 3 4 4 4 5 7 7 8 8 8 8 8 8 7 7 7
10 10 9 9 8 8 8 8 9 9 9 9 9 8 8 7 6 5 5 5 5 5 5 4 4 4 4 4 4 4 4 4 5 6 7 7 7 6 6 6 7 9 12 14 14 13 12 12 11 9 7 4 3 2 2 2 3 4 5 6 7 7 7 7 7 7 7 8 8
9 9 9 9 9 8 8 8 9 9 9 8 7 7 6 6 6 5 5 6 4 4 5 4 4 4 5 5 5 5 5 5 5 6 7 8 7 7 6 6 7 8 11 14 14 13 12 12 11 10 7 3 2 1 1 1 2 3 4 5 5 6 6 5 5 6 6 8 10
9 9 9 9 9 8 8 9 9 8 8 7 6 6 6 5 5 5 5 5 4 4 4 4 5 5 5 6 5 6 6 7 6 7 7 7 8 8 8 7 7 8 10 13 14 13 13 12 12 11 8 4 2 1 0 1 2 3 4 4 4 4 5 5 4 5 5 7 11
9 9 9 9 8 8 8 9 8 7 6 6 6 6 6 5 5 5 5 5 4 4 4 4 5 6 6 7 6 6 7 7 7 7 7 7 8 10 10 7 7 8 9 12 14 14 14 13 13 12 10 4 2 1 1 2 3 3 4 4 4 4 4 4 4 4 5 6 8
8 9 9 9 8 8 8 9 8 7 6 6 6 5 5 5 5 5 5 5 5 5 4 4 6 6 7 7 6 6 7 8 8 8 7 8 8 9 9 7 7 7 8 11 13 14 14 14 14 14 12 7 3 2 2 2 3 4 4 4 4 4 4 4 4 4 5 5 5
Wind_Direction
173 185 200 219 221 201 58 52 55 59 62 62 62 65 73 90 91 86 81 79 82 83 82 77 73 69 63 58 58 58 56 53 52 51 50 47 44 41 38 37 34 31 25 18 12 13 18 21 30 39 43 41 36 32 25 12 7 12 22 34 40 48 53 58 49 39 35 33 30
164 167 177 197 186 123 78 76 72 71 70 67 64 62 67 83 88 86 83 80 84 86 86 81 76 72 68 64 63 63 63 62 61 60 58 54 50 47 45 44 40 37 33 27 21 19 21 25 34 38 39 38 36 32 25 14 10 15 23 26 27 32 39 44 34 33 38 45 44
218 182 173 172 133 104 92 85 82 80 79 77 72 68 66 73 81 83 83 82 84 85 85 84 79 76 73 70 68 68 69 70 70 68 65 60 53 48 47 47 44 41 37 33 30 29 29 31 38 40 39 34 33 32 27 17 16 22 26 23 18 17 20 23 15 16 21 29 30
32 132 135 111 99 96 97 96 93 90 87 85 81 75 69 69 76 80 83 83 81 80 81 83 81 78 76 75 74 73 73 75 75 73 68 62 55 50 47 45 44 41 37 34 33 33 34 36 43 45 44 40 38 35 29 20 25 31 34 28 21 18 19 19 14 14 17 21 18
69 82 93 96 96 95 94 94 96 96 93 90 89 84 79 74 77 80 81 80 78 78 80 82 83 82 81 81 81 80 77 75 74 71 66 60 54 49 45 43 42 39 35 32 30 29 31 36 45 48 45 42 41 35 29 25 34 39 42 38 31 28 26 23 19 19 21 23 20
73 78 85 90 90 89 88 87 91 92 91 88 89 88 86 83 82 80 79 79 80 80 80 80 82 83 85 86 87 86 82 75 69 66 62 58 53 48 44 42 40 37 33 29 26 24 24 30 41 44 41 39 38 31 25 25 37 44 48 45 38 36 33 30 25 25 27 30 31
72 75 78 80 82 84 85 84 85 86 86 85 85 85 85 86 83 81 80 80 79 78 76 75 77 81 87 92 91 87 81 72 65 61 58 56 52 48 45 42 40 37 34 30 27 24 23 27 34 35 32 30 30 23 19 20 31 42 48 47 40 36 35 32 28 28 31 33 33
71 72 74 76 78 79 81 81 83 85 86 84 80 80 81 81 81 81 81 79 78 77 77 77 81 87 94 96 87 78 71 65 60 56 54 54 52 50 48 45 43 40 36 32 30 28 27 29 31 30 26 23 23 18 15 17 27 39 47 47 39 33 29 27 25 27 31 34 35
74 74 74 76 76 76 76 78 81 85 85 82 78 76 76 77 79 81 83 82 82 83 85 87 90 90 86 78 70 65 61 58 56 55 54 55 55 55 53 50 46 42 38 33 32 31 31 33 31 28 23 20 17 12 9 10 21 33 42 46 42 35 29 24 20 22 26 31 35
78 78 78 79 79 79 79 79 79 81 82 81 76 74 74 77 80 83 85 88 89 88 86 86 81 74 67 62 59 57 56 56 58 59 60 62 62 60 58 54 48 44 39 33 32 32 34 37 33 27 21 16 12 6 2 360 8 17 26 36 42 42 38 29 21 19 20 24 29
78 77 77 79 82 84 84 82 78 76 77 79 76 75 75 79 83 86 89 91 88 83 77 71 65 61 57 55 54 54 56 58 63 67 68 67 64 61 58 55 50 45 40 33 30 31 35 38 32 25 15 5 0 354 348 345 348 351 355 357 29 53 58 48 33 24 20 17 18
74 73 73 75 79 82 83 81 77 75 75 78 79 80 81 83 85 86 86 83 79 73 67 60 57 55 53 53 53 55 59 64 67 67 64 59 56 54 52 50 46 41 37 31 29 28 29 28 22 12 2 350 341 332 328 328 329 330 329 324 332 16 78 84 66 50 31 8 359
72 72 72 74 77 78 78 76 74 74 75 78 84 87 88 85 81 79 77 73 70 66 61 56 55 54 54 55 57 59 62 62 59 57 54 51 49 47 45 43 40 36 33 29 27 26 25 21 15 9 1 354 348 341 336 333 334 335 334 331 333 342 359 19 11 344 294 252 239
69 69 69 71 73 74 74 73 72 72 75 80 87 89 87 79 72 69 67 66 64 62 60 58 57 57 58 60 61 61 59 57 54 53 51 48 46 44 43 41 36 33 30 27 26 25 24 20 16 12 7 3 360 356 354 353 355 355 353 351 352 355 357 355 352 349 341 322 287
66 64 63 64 66 69 72 72 72 72 75 80 81 79 75 69 64 62 62 62 62 62 61 62 62 61 61 60 57 55 53 53 52 51 49 45 42 40 39 37 33 29 26 23 23 22 20 16 13 11 8 5 1 359 359 0 3 5 5 4 3 2 1 358 358 358 355 348 337
65 62 61 60 61 64 68 70 70 69 69 70 68 66 65 63 60 59 59 60 61 62 63 64 64 61 56 52 50 49 49 49 50 49 46 42 38 36 34 32 27 23 19 17 16 14 11 7 6 4 1 358 354 353 353 355 358 359 360 359 358 357 355 355 356 356 356 354 351
66 64 62 61 61 62 64 65 65 64 62 61 60 60 61 61 60 59 58 59 62 63 63 61 60 56 52 47 45 45 45 45 46 45 43 40 36 33 30 27 23 18 15 13 12 8 4 359 357 354 351 347 345 344 344 346 347 347 347 345 344 343 342 342 344 345 345 345 342
68 66 65 64 64 64 64 64 63 61 59 58 58 59 60 61 61 60 58 57 60 61 60 57 54 52 49 46 43 42 43 42 41 40 39 37 35 32 29 25 21 18 15 12 9 5 1 356 354 351 347 343 339 338 338 339 338 336 334 332 331 328 326 326 326 328 328 328 323
71 69 67 66 66 66 65 64 62 59 57 57 58 59 60 60 60 60 57 54 54 56 56 54 50 48 46 44 41 41 41 41 39 37 35 33 31 29 26 23 21 19 16 12 7 2 358 356 355 354 351 347 343 340 338 336 332 328 324 320 317 313 309 307 305 305 305 303 302
74 71 68 67 67 66 65 63 61 59 58 57 58 59 59 57 57 57 55 53 51 51 52 51 48 45 42 39 38 38 37 38 36 34 31 28 25 23 20 19 19 18 14 8 1 356 353 353 355 355 355 353 350 346 342 338 331 324 318 311 305 299 294 290 288 286 285 283 284
72 70 68 66 67 67 66 64 62 60 59 58 58 58 57 56 55 54 53 51 50 50 49 49 46 43 39 34 34 34 33 33 33 30 27 22 18 14 12 14 16 14 9 1 353 348 346 346 350 353 355 356 353 350 346 342 337 330 323 316 308 300 294 289 284 280 276 272 271
68 67 65 65 67 68 69 67 65 62 60 58 57 56 56 54 53 51 50 48 48 48 48 47 45 42 37 34 33 32 31 30 29 26 22 18 10 6 4 9 12 10 4 354 344 338 334 335 342 350 355 355 352 350 347 344 341 337 332 328 322 316 311 304 297 290 283 276 272
66 66 66 66 67 68 68 67 64 61 58 55 53 53 52 51 49 47 46 46 47 47 45 43 42 39 37 35 35 34 31 28 23 19 15 11 4 358 357 4 11 8 357 344 332 326 324 326 335 347 354 356 351 348 345 343 340 338 335 333 331 329 326 323 318 311 304 296 288
66 67 67 66 64 64 63 61 59 56 54 51 49 48 46 45 43 43 43 43 43 42 40 37 35 34 34 34 36 36 35 30 22 15 9 5 2 359 357 359 1 354 338 322 319 321 325 330 335 346 355 356 351 347 344 342 339 336 334 332 332 331 330 329 328 325 320 314 308
66 66 64 62 60 58 57 55 54 52 49 47 45 44 43 41 40 40 40 39 38 36 33 30 28 28 30 31 33 34 34 31 24 15 8 4 2 0 359 355 346 328 308 299 312 320 328 334 339 347 356 358 352 347 344 341 338 335 333 331 330 329 328 328 328 328 325 321 318
63 61 58 57 56 55 53 51 50 49 47 44 43 42 41 38 39 38 38 36 32 30 29 28 26 27 29 30 29 28 27 26 23 18 11 6 2 359 356 351 340 323 307 303 312 318 325 332 336 340 347 360 355 350 343 339 335 333 330 328 327 326 325 325 325 324 323 321 319
59 57 55 54 54 52 51 49 47 45 44 42 42 41 40 38 39 38 37 34 30 28 27 27 26 27 29 31 29 26 23 19 18 15 11 6 360 355 350 346 341 331 319 316 317 319 322 327 332 336 340 354 3 354 341 331 328 327 325 323 322 321 321 319 318 318 319 318 317
55 53 52 52 51 50 48 45 44 42 40 40 41 40 40 40 40 39 36 32 29 27 26 24 23 25 28 29 26 23 20 16 14 11 6 1 354 347 341 335 333 328 326 326 326 325 326 327 330 333 335 341 350 0 344 330 327 325 322 320 318 316 315 314 314 314 315 315 315
51 50 50 50 49 47 44 43 41 39 37 36 37 38 40 41 40 38 35 32 29 27 25 21 20 22 24 23 19 17 16 13 9 6 1 355 346 337 330 324 321 323 327 330 331 331 331 331 333 333 334 339 350 22 17 345 334 329 324 321 317 315 313 311 311 311 310 310 310
47 48 48 48 47 45 43 41 39 37 35 33 33 34 36 38 37 35 33 31 28 26 24 21 20 20 18 15 15 14 12 6 1 357 352 345 337 329 323 319 316 320 325 332 334 335 335 335 337 336 336 340 359 24 31 357 343 333 326 320 316 313 310 308 307 306 305 305 306
43 44 45 45 44 43 40 38 36 34 32 32 31 30 31 32 31 30 29 27 25 22 20 21 20 17 13 11 12 10 4 354 349 344 338 333 327 323 318 314 313 316 324 332 336 337 338 338 339 337 337 344 8 27 27 0 345 334 325 318 315 312 310 308 306 305 304 302 303
40 41 42 43 42 40 38 35 33 32 30 30 29 28 27 26 25 23 22 21 20 18 16 16 15 11 8 5 4 358 349 339 332 326 322 320 319 317 315 314 311 315 324 334 338 339 340 340 340 338 339 352 16 28 20 359 343 331 322 316 312 310 310 310 308 306 304 303 302
38 39 40 42 41 39 37 34 32 31 30 29 28 27 25 21 19 16 15 15 17 17 16 14 11 6 1 356 350 342 332 323 317 315 314 315 316 316 315 315 310 316 325 336 340 341 341 340 340 340 345 3 21 28 16 359 345 335 327 321 317 314 312 311 309 308 307 306 304
35 35 36 38 39 38 36 34 32 31 30 28 26 24 21 18 14 12 10 8 11 13 13 11 7 359 349 338 330 323 318 317 315 315 317 319 323 325 325 322 314 321 330 339 341 342 341 341 340 344 355 18 30 30 17 2 349 340 333 328 324 322 320 318 315 313 312 311 310
30 30 31 31 32 32 32 31 30 29 28 26 23 19 17 14 11 8 5 3 7 8 6 0 355 348 336 322 313 314 318 323 324 325 327 331 337 338 335 328 319 326 333 340 342 343 343 343 342 350 5 33 41 36 21 5 350 340 334 330 327 325 324 323 321 320 318 318 316
27 27 26 26 26 26 27 28 28 27 25 23 19 16 12 9 6 4 2 3 7 6 0 352 350 348 343 333 324 323 327 333 335 337 340 345 348 347 341 332 325 328 334 339 342 344 344 344 345 357 18 48 51 42 26 8 349 337 331 328 325 323 322 322 322 322 322 322 319
25 25 25 24 23 23 24 25 26 25 23 19 16 13 9 6 2 0 1 6 8 4 358 352 350 347 343 336 330 329 334 342 347 349 350 353 353 350 343 336 329 329 332 337 342 345 347 347 349 2 27 67 63 50 32 8 344 330 324 321 317 316 315 316 317 319 319 319 318
23 24 25 25 23 22 22 24 25 23 19 15 12 9 6 5 2 360 0 6 7 2 356 352 349 343 338 334 334 337 341 350 357 359 358 356 352 350 347 343 334 330 332 338 343 347 349 351 353 3 22 73 80 71 39 4 334 321 314 310 307 306 306 307 310 311 312 313 318
22 24 26 27 25 24 23 24 23 20 16 12 8 5 4 4 0 358 359 3 6 4 358 352 346 340 339 344 352 355 356 357 1 2 0 355 350 350 352 349 337 332 333 340 345 349 352 355 356 2 15 54 76 86 14 347 327 317 310 303 301 300 299 299 301 302 305 306 317
21 23 26 27 27 26 24 22 19 16 13 11 8 5 3 1 358 357 357 0 3 3 359 352 346 344 348 359 7 9 5 2 0 359 357 352 349 352 354 350 339 332 333 340 346 351 354 357 357 359 4 25 40 32 353 345 332 321 312 302 301 300 299 297 296 299 303 305 315
22 23 25 26 26 26 24 21 16 13 10 10 8 5 2 0 358 357 358 359 359 359 358 356 353 355 1 11 18 17 12 5 358 353 350 349 349 351 351 348 339 333 333 339 347 352 355 356 355 355 356 4 15 17 1 353 335 321 310 302 301 298 296 292 293 297 301 304 309